Location: Great Chart
(51.1333°N, 0.8333°E)
Time: 21:50:07
(UTC+00:00)

Cosmos 2279 Rocket - Pass Details

Date: 09 December 2025
Orbit: 963 x 977 km, 82.9° (Epoch: 18 May)

Event Time Altitude Azimuth Distance (km) Brightness Sun altitude
Rises 16:16:56 0° 163° (SSE) 3,646 7.2 -4.4°
Reaches altitude 10° 16:19:32 10° 157° (SSE) 2,706 6.5 -4.7°
Maximum altitude 16:25:17 42° 89° (E) 1,361 4.4 -5.5°
Drops below altitude 10° 16:31:06 10° 21° (NNE) 2,732 5.9 -6.3°
Sets 16:33:44 0° 15° (NNE) 3,686 6.6 -6.7°
